Weather reports worldwide

Advertisment
Quimper, France (7201): temperature & dewpoint: 19.09.2018 12:00:00 - 25.09.2018 12:00:00 (CEST)Quimper, France (7201): temperature 5cm: 19.09.2018 12:00:00 - 25.09.2018 12:00:00 (CEST)Quimper, France (7201): temperature -20cm: 19.09.2018 12:00:00 - 25.09.2018 12:00:00 (CEST)Quimper, France (7201): wind speed & gusts: 19.09.2018 12:00:00 - 25.09.2018 12:00:00 (CEST)Quimper, France (7201): wind direction: 19.09.2018 12:00:00 - 25.09.2018 12:00:00 (CEST)Quimper, France (7201): reduced air pressure: 19.09.2018 12:00:00 - 25.09.2018 12:00:00 (CEST)Quimper, France (7201): visibility: 19.09.2018 12:00:00 - 25.09.2018 12:00:00 (CEST)Quimper, France (7201): sunshine duration: 19.09.2018 12:00:00 - 25.09.2018 12:00:00 (CEST)Quimper, France (7201): precipitation: 19.09.2018 12:00:00 - 25.09.2018 12:00:00 (CEST)
Date & Time tt [°C] td [°C] tt 5cm [°C] tt -20cm [°C] ff [km/h] ff [kn] fx [km/h] fx [kn] dd ppp [hPa] vv [km] sd [min] rr [mm]
25.09.2018 12:00:00 15,3 6,0 16,4 15,0 12 6 23 12 ESE 1036,7 20 60 0,0
25.09.2018 11:00:00 13,3 7,7 14,4 15,1 10 5 18 10 E 1037,0 60 60 0,0
25.09.2018 10:00:00 10,8 6,7 10,0 15,2 6 4 14 8 NE 1036,8 48 60 0,0
25.09.2018 09:00:00 8,0 5,6 4,5 15,3 11 6 17 9 NE 1036,7 48 30 0,0
25.09.2018 08:00:00 6,0 4,2 5,0 15,5 8 4 14 8 ENE 1036,2 55 0 0,0
25.09.2018 07:00:00 7,0 5,0 6,0 15,6 8 4 15 8 ENE 1036,2 58 0 0,0
25.09.2018 06:00:00 7,4 5,5 5,7 15,7 9 5 16 9 NE 1036,4 60 0 0,0
25.09.2018 05:00:00 7,5 5,6 5,5 15,8 7 4 14 7 ENE 1036,5 59 0 0,0
25.09.2018 04:00:00 7,3 5,4 5,8 15,9 8 4 17 9 NNE 1037,0 58 0 0,0
25.09.2018 03:00:00 8,2 6,0 6,9 16,0 9 5 16 9 ENE 1036,8 60 0 0,0
25.09.2018 02:00:00 8,9 6,2 7,6 16,1 9 5 18 10 NE 1037,4 60 0 0,0
25.09.2018 01:00:00 8,9 5,8 7,7 16,1 8 4 18 10 NE 1037,5 60 0 0,0
25.09.2018 00:00:00 9,4 5,9 8,3 16,2 10 5 17 9 NE 1037,5 60 0 0,0
24.09.2018 23:00:00 9,8 6,1 8,7 16,2 9 5 19 11 NNE 1037,4 60 0 0,0
24.09.2018 22:00:00 10,9 6,0 10,0 16,2 11 6 19 11 NE 1037,4 60 0 0,0
24.09.2018 21:00:00 12,1 6,2 11,2 16,1 12 6 21 11 NE 1036,8 60 0 0,0
24.09.2018 20:00:00 13,9 6,3 13,6 16,0 13 7 25 13 NE 1036,3 60 47 0,0
24.09.2018 19:00:00 15,9 5,8 16,5 15,9 11 6 29 15 ENE 1035,8 47 54 0,0
24.09.2018 18:00:00 17,0 5,6 18,4 15,8 10 5 29 16 NE 1035,8 60 58 0,0
24.09.2018 17:00:00 16,2 5,5 16,2 15,7 12 7 27 14 NE 1036,3 60 31 0,0
24.09.2018 16:00:00 17,5 6,7 16,4 15,6 13 7 25 14 ENE 1036,9 58 40 0,0
24.09.2018 15:00:00 17,2 6,7 16,0 15,6 15 8 30 16 NE 1037,1 60 45 0,0
24.09.2018 14:00:00 16,8 6,6 17,9 15,6 13 7 32 17 ENE 1037,6 20 54 0,0
24.09.2018 13:00:00 16,2 7,4 17,8 15,6 14 8 29 16 ENE 1037,9 60 60 0,0
24.09.2018 12:00:00 15,3 7,8 17,1 15,7 14 7 29 16 ENE 1038,0 60 60 0,0
24.09.2018 11:00:00 13,8 8,0 15,6 15,9 11 6 19 10 NE 1038,4 60 60 0,0
24.09.2018 10:00:00 11,6 7,3 10,8 16,0 9 5 14 8 NNE 1037,9 8 60 0,0
24.09.2018 09:00:00 8,6 6,6 4,4 16,1 8 5 12 6 NNE 1037,3 51 27 0,0
24.09.2018 08:00:00 7,4 5,2 4,8 16,3 5 3 11 6 N 1036,5 59 0 0,0
24.09.2018 07:00:00 7,1 4,7 5,3 16,4 7 4 13 7 NNE 1036,0 60 0 -
24.09.2018 06:00:00 7,9 5,0 6,9 16,5 10 5 17 9 N 1035,7 60 0 0,0
24.09.2018 05:00:00 7,9 4,7 6,4 16,7 8 5 16 9 N 1035,5 60 0 0,0
24.09.2018 04:00:00 7,6 4,4 5,6 16,8 11 6 15 8 N 1035,4 60 0 0,0
24.09.2018 03:00:00 8,0 4,0 6,5 16,9 5 3 18 10 N 1035,0 60 0 0,0
24.09.2018 02:00:00 8,7 4,9 7,5 17,1 8 4 18 10 N 1034,4 60 0 0,0
24.09.2018 01:00:00 9,2 5,0 8,4 17,2 11 6 23 12 N 1033,9 60 0 0,0
24.09.2018 00:00:00 9,8 5,2 8,7 17,2 10 5 27 14 N 1033,0 60 0 0,0
23.09.2018 23:00:00 10,3 6,1 9,6 17,3 14 8 27 15 N 1032,3 60 0 0,0
23.09.2018 22:00:00 10,7 7,0 9,2 17,4 16 8 27 15 N 1031,4 60 0 0,0
23.09.2018 21:00:00 10,3 7,2 9,2 17,4 8 4 21 12 N 1030,1 60 0 0,0
23.09.2018 20:00:00 11,9 7,2 11,7 17,5 11 6 41 22 NNE 1028,9 60 49 0,0
23.09.2018 19:00:00 13,2 7,4 13,3 17,4 21 11 56 30 NNE 1027,5 56 45 0,0
23.09.2018 18:00:00 14,8 9,2 14,1 17,4 26 14 49 27 N 1026,0 60 27 0,0
23.09.2018 17:00:00 14,3 9,9 14,7 17,4 18 10 47 26 N 1024,8 60 2 0,0
23.09.2018 16:00:00 15,0 11,4 15,2 17,3 22 12 48 26 N 1023,4 31 6 0,0
23.09.2018 15:00:00 15,0 12,5 15,7 17,3 24 13 46 25 N 1022,0 54 6 0,0
23.09.2018 14:00:00 15,4 14,1 15,4 17,3 25 13 51 28 N 1020,5 17 7 0,0
23.09.2018 13:00:00 15,9 15,6 16,0 17,2 26 14 48 26 N 1019,1 4,4 6 0,2
23.09.2018 12:00:00 17,3 17,1 17,2 17,2 26 14 46 25 W 1017,7 14 0 0,4
23.09.2018 11:00:00 17,6 17,4 17,5 17,2 27 15 46 25 W 1017,4 2,8 0 0,4
23.09.2018 10:00:00 17,5 17,3 17,4 17,2 27 15 46 25 W 1016,8 10 0 0,4
23.09.2018 09:00:00 17,5 17,3 17,4 17,1 25 14 46 25 WSW 1016,3 4,5 0 0,4
23.09.2018 08:00:00 17,5 17,3 17,4 17,1 25 13 47 25 WSW 1016,4 4,4 0 0,2
23.09.2018 07:00:00 17,6 17,4 17,4 17,1 23 13 47 25 WSW 1016,5 1,8 0 0,4
23.09.2018 06:00:00 17,6 17,4 17,4 17,1 26 14 43 23 WSW 1016,6 1,7 0 0,4
23.09.2018 05:00:00 17,6 17,4 17,5 17,0 23 13 44 24 W 1016,9 1,2 0 0,4
23.09.2018 04:00:00 17,6 17,4 17,5 17,0 22 12 40 22 W 1017,3 2,9 0 0,2
23.09.2018 03:00:00 17,7 17,5 17,5 17,0 23 12 41 22 WSW 1017,6 4,5 0 0,6
23.09.2018 02:00:00 17,7 17,5 17,6 17,0 24 13 49 26 W 1017,8 2,6 0 0,8
23.09.2018 01:00:00 17,8 17,6 17,7 16,9 27 15 45 25 W 1017,7 2,2 0 0,6
23.09.2018 00:00:00 17,9 17,7 17,8 16,9 26 14 49 26 WSW 1017,5 0,5 0 0,2
22.09.2018 23:00:00 18,0 17,8 17,8 16,8 27 14 52 28 WSW 1017,5 0,5 0 0,2
22.09.2018 22:00:00 18,0 17,8 17,9 16,8 27 15 46 25 WSW 1017,4 0,8 0 0,0
22.09.2018 21:00:00 18,1 17,9 17,9 16,7 28 15 51 28 WSW 1016,9 1,6 0 0,4
22.09.2018 20:00:00 18,1 17,9 17,9 16,7 28 15 50 27 WSW 1016,7 1,3 0 0,6
22.09.2018 19:00:00 18,2 17,9 18,0 16,6 29 16 50 27 WSW 1016,4 1,7 0 0,0
22.09.2018 18:00:00 18,3 18,0 18,2 16,6 32 17 55 30 WSW 1016,1 3,1 0 0,0
22.09.2018 17:00:00 18,5 18,2 18,3 16,5 31 17 57 31 WSW 1016,3 4,2 0 0,0
22.09.2018 16:00:00 18,3 18,0 17,9 16,5 32 17 56 31 WSW 1016,3 4,5 0 0,0
22.09.2018 15:00:00 18,0 17,7 17,0 16,5 30 16 53 29 SW 1016,4 3,2 0 1,4
22.09.2018 14:00:00 16,9 16,6 15,4 16,5 16 9 34 18 S 1017,1 1,8 0 4,9
22.09.2018 13:00:00 15,3 15,0 14,4 16,5 22 12 43 23 SSE 1018,1 1,9 0 2,6
22.09.2018 12:00:00 14,3 13,7 13,7 16,5 21 11 45 25 S 1019,2 2,2 0 1,4
22.09.2018 11:00:00 14,2 12,4 13,4 16,6 20 11 46 25 S 1020,0 4,0 0 0,2
22.09.2018 10:00:00 15,0 11,9 12,9 16,6 18 10 48 26 S 1020,0 20 0 0,0
22.09.2018 09:00:00 13,4 11,6 12,2 16,7 8 5 13 7 SSE 1020,4 59 0 0,2
22.09.2018 08:00:00 12,5 10,9 11,3 16,8 6 3 10 5 SSE 1021,0 13 0 0,0
22.09.2018 07:00:00 11,3 10,2 10,8 16,8 4 2 8 4 SE 1021,4 44 0 0,0
22.09.2018 06:00:00 10,9 9,8 10,6 16,9 4 2 7 4 E 1022,5 42 0 0,0
22.09.2018 05:00:00 10,8 9,7 9,8 17,0 0 0 3 2 N 1023,1 44 0 0,0
22.09.2018 04:00:00 10,6 9,4 9,7 17,1 2 1 4 2 NNE 1023,4 42 0 0,0
22.09.2018 03:00:00 10,2 8,6 8,5 17,3 0 0 5 3 N 1023,4 43 0 0,0
22.09.2018 02:00:00 10,2 8,6 8,2 17,3 4 2 7 4 SW 1023,7 47 0 0,0
22.09.2018 01:00:00 10,7 8,3 9,1 17,4 6 3 8 4 WSW 1024,4 47 0 0,0
22.09.2018 00:00:00 11,4 9,0 10,3 17,5 4 2 7 4 SW 1024,1 52 0 0,0
21.09.2018 23:00:00 11,5 9,1 10,0 17,6 6 3 8 4 SW 1023,9 52 0 0,0
21.09.2018 22:00:00 11,7 9,1 10,3 17,6 4 2 7 4 W 1024,0 53 0 0,0
21.09.2018 21:00:00 12,4 9,4 10,8 17,6 4 2 9 5 SW 1023,3 53 0 0,0
21.09.2018 20:00:00 13,8 8,8 13,1 17,6 8 4 23 13 WNW 1022,7 60 30 0,0
21.09.2018 19:00:00 15,2 8,2 13,9 17,6 14 8 23 12 W 1022,0 59 6 0,0
21.09.2018 18:00:00 15,0 8,2 14,9 17,5 13 7 29 16 W 1021,9 58 0 0,0
21.09.2018 17:00:00 15,4 7,7 15,9 17,5 18 10 37 20 WNW 1021,5 49 15 0,0
21.09.2018 16:00:00 16,8 7,7 17,1 17,4 23 13 37 20 WNW 1021,2 20 11 0,0
21.09.2018 15:00:00 16,4 7,1 17,2 17,4 23 13 36 19 WNW 1020,8 60 18 0,0
21.09.2018 14:00:00 17,6 7,3 18,4 17,4 21 11 36 20 WNW 1020,1 20 60 0,0
21.09.2018 13:00:00 16,7 8,1 16,4 17,5 21 12 36 20 WNW 1019,5 60 36 0,0
21.09.2018 12:00:00 15,0 9,1 15,3 17,5 14 7 34 18 WNW 1019,1 54 20 0,0
21.09.2018 11:00:00 14,6 10,2 14,2 17,6 9 5 15 8 W 1018,4 52 15 0,0
21.09.2018 10:00:00 13,5 9,9 11,9 17,7 5 3 11 6 WNW 1017,3 51 40 0,0
21.09.2018 09:00:00 11,5 8,5 11,0 17,8 8 5 23 13 WNW 1016,3 46 7 0,0
21.09.2018 08:00:00 11,9 8,7 11,1 17,9 13 7 27 14 NW 1015,0 47 0 0,0
21.09.2018 07:00:00 12,3 9,5 11,8 18,0 15 8 29 16 NW 1013,7 45 0 0,0
21.09.2018 06:00:00 12,7 9,9 11,4 18,1 18 10 31 17 NW 1012,8 41 0 0,0
21.09.2018 05:00:00 12,7 9,9 12,0 18,2 16 9 32 17 WNW 1011,9 38 0 0,0
21.09.2018 04:00:00 13,4 11,3 12,3 18,2 18 10 36 19 WNW 1011,2 34 0 0,0
21.09.2018 03:00:00 14,2 12,8 13,5 18,2 16 9 35 19 WNW 1010,4 19 0 0,4
21.09.2018 02:00:00 15,2 14,4 14,6 18,2 26 14 65 35 WNW 1009,5 10 0 10,9
21.09.2018 01:00:00 18,1 17,6 17,4 18,2 37 20 65 35 SSW 1007,6 4,0 0 2,6
21.09.2018 00:00:00 17,9 17,3 17,3 18,2 33 18 61 33 SSW 1008,3 3,2 0 2,8
20.09.2018 23:00:00 18,0 16,5 17,3 18,3 29 16 56 30 SSW 1009,6 8 0 0,2
20.09.2018 22:00:00 18,4 16,4 18,3 18,2 28 15 52 28 SSW 1010,5 16 0 0,0
20.09.2018 21:00:00 18,6 16,4 18,3 18,2 31 17 56 31 SSW 1011,0 19 0 0,0
20.09.2018 20:00:00 18,5 16,3 18,5 18,2 25 14 54 29 SSW 1011,7 20 0 0,0
20.09.2018 19:00:00 18,8 16,4 18,9 18,2 25 14 55 30 SSW 1012,1 19 0 0,0
20.09.2018 18:00:00 19,0 16,4 19,2 18,1 24 13 45 25 SSW 1012,8 20 0 0,0
20.09.2018 17:00:00 19,3 16,5 19,5 18,1 26 14 45 24 SW 1013,9 20 0 0,0
20.09.2018 16:00:00 19,6 16,4 19,9 18,0 20 11 49 26 SW 1014,5 19 0 0,0
20.09.2018 15:00:00 19,8 16,4 20,5 18,0 27 15 53 29 SSW 1015,0 20 0 0,0
20.09.2018 14:00:00 20,4 16,2 21,1 17,9 27 14 48 26 SSW 1015,4 19 0 0,0
20.09.2018 13:00:00 20,4 16,4 21,5 17,9 24 13 42 23 SSW 1015,9 20 19 0,0
20.09.2018 12:00:00 20,2 16,8 19,6 17,9 22 12 44 24 SW 1016,2 19 6 0,2
20.09.2018 11:00:00 18,8 17,1 18,8 18,0 22 12 39 21 SW 1016,6 16 1 0,0
20.09.2018 10:00:00 18,1 17,6 17,7 18,0 18 10 36 19 SSW 1016,8 12 3 0,0
20.09.2018 09:00:00 17,2 16,9 16,3 18,1 12 7 22 12 S 1017,0 7 0 0,0
20.09.2018 08:00:00 16,9 16,4 16,1 18,1 10 5 18 10 S 1017,0 7 0 0,0
20.09.2018 07:00:00 16,6 16,1 16,0 18,2 9 5 24 13 SSW 1017,3 12 0 0,0
20.09.2018 06:00:00 16,3 15,8 15,4 18,3 13 7 22 12 SSW 1017,5 10 0 0,0
20.09.2018 05:00:00 16,0 15,4 15,5 18,3 8 5 20 11 SSW 1017,9 12 0 0,0
20.09.2018 04:00:00 16,3 15,7 15,8 18,3 12 7 24 13 SW 1018,0 13 0 0,0
20.09.2018 03:00:00 16,5 15,9 16,0 18,4 12 6 26 14 SSW 1018,5 10 0 0,0
20.09.2018 02:00:00 17,1 16,5 16,4 18,4 16 8 24 13 SW 1018,6 10 0 0,0
20.09.2018 01:00:00 17,3 16,3 17,0 18,4 11 6 25 13 SSW 1018,8 9 0 0,0
20.09.2018 00:00:00 18,0 16,7 17,8 18,4 14 8 33 18 SW 1018,9 12 0 0,0
19.09.2018 23:00:00 18,3 16,8 18,1 18,4 20 11 34 18 SW 1019,1 13 0 0,0
19.09.2018 22:00:00 18,2 16,9 17,9 18,4 16 9 30 16 SSW 1019,0 13 0 0,0
19.09.2018 21:00:00 18,3 16,6 18,1 18,4 16 9 34 18 SSW 1018,9 14 0 0,0
19.09.2018 20:00:00 18,7 16,5 18,6 18,3 19 11 37 20 SW 1018,9 18 21 0,0
19.09.2018 19:00:00 19,8 16,4 20,1 18,3 22 12 46 25 WSW 1018,9 18 20 0,0
19.09.2018 18:00:00 19,9 16,3 20,4 18,2 28 15 45 24 SW 1018,6 18 5 0,0
19.09.2018 17:00:00 20,5 16,3 21,3 18,1 27 14 48 26 SW 1018,6 19 4 0,0
19.09.2018 16:00:00 20,5 16,7 20,9 18,0 29 15 46 25 SW 1018,7 19 0 0,0
19.09.2018 15:00:00 21,3 16,0 21,9 17,9 28 15 48 26 WSW 1018,7 20 23 0,0
19.09.2018 14:00:00 22,1 16,1 22,1 17,9 29 16 51 28 SW 1018,4 20 38 0,0
19.09.2018 13:00:00 20,9 16,3 21,7 17,9 33 18 49 27 WSW 1018,6 19 25 0,0
19.09.2018 12:00:00 20,9 16,9 19,9 17,9 27 14 46 25 SW 1018,3 19 13 0,0

tt = temperature
td = dewpoint
tt 5cm = temperature 5cm
tt -20cm = temperature -20cm
ff = wind speed
fx = gusts
dd = wind direction
ppp = reduced air pressure
vv = visibility
sd = sunshine duration
rr = precipitation

Next stations